KG4AGD Weather Reports


Display with metric or nautical units.
time (UTC)temp
F
wind
direction
speed
MPH
gust
MPH
rain 1hr
in
rain 24hr
in
rain mn
in
humidity
%
barometer
mb
20260506002703 72 145 8.0 13.0 0.00 0.00 0.00 63 1016.2
20260506002201 72 144 10.0 11.0 0.00 0.00 0.00 63 1015.9
20260506001658 72 171 8.0 11.0 0.00 0.00 0.00 63 1015.9
20260506001156 73 165 10.0 10.0 0.00 0.00 0.00 62 1015.9
20260506000653 73 198 5.0 12.0 0.00 0.00 0.00 61 1015.9
20260506000151 73 172 11.0 11.0 0.00 0.00 0.00 61 1015.9
20260505235648 73 179 5.0 10.0 0.00 0.00 0.00 60 1015.5
20260505235146 74 179 9.0 11.0 0.00 0.00 0.00 59 1015.5
20260505234643 74 183 4.0 10.0 0.00 0.00 0.00 58 1015.5
20260505234141 74 183 7.0 17.0 0.00 0.00 0.00 57 1015.9
20260505233639 75 154 13.0 15.0 0.00 0.00 0.00 56 1015.5
20260505233137 75 183 14.0 14.0 0.00 0.00 0.00 56 1015.5
20260505232635 75 155 12.0 12.0 0.00 0.00 0.00 55 1015.5
20260505232133 76 153 10.0 11.0 0.00 0.00 0.00 55 1015.5
20260505231631 76 206 7.0 9.0 0.00 0.00 0.00 55 1015.5
20260505231128 76 177 6.0 14.0 0.00 0.00 0.00 54 1015.5
20260505230626 77 207 9.0 10.0 0.00 0.00 0.00 54 1015.5
20260505230124 77 162 7.0 13.0 0.00 0.00 0.00 54 1015.5
20260505225611 77 166 6.0 12.0 0.00 0.00 0.00 53 1015.5
20260505225109 77 173 10.0 15.0 0.00 0.00 0.00 53 1015.5
20260505224607 78 119 8.0 11.0 0.00 0.00 0.00 52 1015.5
20260505224105 78 134 8.0 12.0 0.00 0.00 0.00 52 1015.9
20260505223602 78 175 8.0 10.0 0.00 0.00 0.00 52 1015.5
20260505223100 78 213 7.0 12.0 0.00 0.00 0.00 52 1015.9
20260505222557 78 166 9.0 12.0 0.00 0.00 0.00 51 1015.9
20260505222055 78 164 7.0 11.0 0.00 0.00 0.00 52 1015.9
20260505221553 79 162 9.0 11.0 0.00 0.00 0.00 50 1015.9
20260505221050 80 169 8.0 12.0 0.00 0.00 0.00 50 1015.9
20260505220548 80 226 7.0 13.0 0.00 0.00 0.00 51 1015.9
20260505220046 80 177 5.0 7.0 0.00 0.00 0.00 52 1015.9
20260505215543 80 193 11.0 14.0 0.00 0.00 0.00 51 1015.9
20260505215041 80 228 8.0 13.0 0.00 0.00 0.00 50 1015.9
20260505214539 80 184 7.0 15.0 0.00 0.00 0.00 50 1015.9
20260505214036 80 171 9.0 13.0 0.00 0.00 0.00 50 1015.9
20260505213534 81 210 10.0 11.0 0.00 0.00 0.00 49 1015.9
20260505213032 80 171 8.0 12.0 0.00 0.00 0.00 49 1015.9
20260505212530 81 165 8.0 12.0 0.00 0.00 0.00 49 1015.9
20260505212027 80 140 12.0 18.0 0.00 0.00 0.00 49 1015.9
20260505211525 81 177 8.0 15.0 0.00 0.00 0.00 49 1015.9
20260505211022 81 151 10.0 13.0 0.00 0.00 0.00 48 1015.9
20260505210520 81 179 7.0 13.0 0.00 0.00 0.00 47 1015.9
20260505205916 81 165 12.0 13.0 0.00 0.00 0.00 47 1015.9
20260505205414 81 236 4.0 11.0 0.00 0.00 0.00 47 1015.9
20260505204911 82 164 9.0 11.0 0.00 0.00 0.00 47 1015.9
20260505204409 82 214 6.0 8.0 0.00 0.00 0.00 47 1015.9
20260505203907 81 226 13.0 13.0 0.00 0.00 0.00 48 1015.9
20260505203404 82 228 9.0 9.0 0.00 0.00 0.00 47 1015.9
20260505202902 82 168 3.0 9.0 0.00 0.00 0.00 50 1015.9
20260505202400 81 188 7.0 8.0 0.00 0.00 0.00 49 1015.9
20260505201858 80 205 14.0 14.0 0.00 0.00 0.00 50 1015.9
20260505201355 80 169 6.0 11.0 0.00 0.00 0.00 50 1015.9
20260505200854 82 169 11.0 12.0 0.00 0.00 0.00 48 1015.9
20260505200351 82 183 7.0 9.0 0.00 0.00 0.00 49 1016.2
20260505195849 81 159 10.0 10.0 0.00 0.00 0.00 50 1016.2
20260505195347 80 173 15.0 15.0 0.00 0.00 0.00 50 1016.5
20260505194845 81 179 7.0 10.0 0.00 0.00 0.00 47 1016.5
20260505194343 81 161 6.0 9.0 0.00 0.00 0.00 49 1016.5
20260505193840 82 167 7.0 9.0 0.00 0.00 0.00 47 1016.5
20260505193338 80 217 10.0 10.0 0.00 0.00 0.00 48 1016.5
20260505192836 80 246 9.0 10.0 0.00 0.00 0.00 50 1016.9
20260505192334 80 166 9.0 11.0 0.00 0.00 0.00 48 1016.9
20260505191831 82 140 12.0 14.0 0.00 0.00 0.00 46 1016.9
20260505191329 82 251 10.0 10.0 0.00 0.00 0.00 48 1016.9
20260505190827 82 207 11.0 11.0 0.00 0.00 0.00 47 1017.2
20260505190324 81 187 4.0 6.0 0.00 0.00 0.00 49 1017.2
20260505185822 82 208 6.0 9.0 0.00 0.00 0.00 48 1017.2
20260505185320 81 196 7.0 14.0 0.00 0.00 0.00 48 1017.2
20260505184818 81 217 7.0 8.0 0.00 0.00 0.00 48 1017.2
20260505184315 81 174 9.0 10.0 0.00 0.00 0.00 47 1017.2
20260505183813 81 163 8.0 8.0 0.00 0.00 0.00 49 1017.6
20260505183311 81 169 10.0 14.0 0.00 0.00 0.00 48 1017.6
20260505182809 80 172 9.0 11.0 0.00 0.00 0.00 48 1017.6
20260505182306 81 175 6.0 9.0 0.00 0.00 0.00 48 1017.6
20260505181804 81 165 11.0 11.0 0.00 0.00 0.00 49 1017.6
20260505181302 80 241 7.0 8.0 0.00 0.00 0.00 50 1017.6
20260505180800 79 138 6.0 7.0 0.00 0.00 0.00 51 1017.6
20260505180258 81 206 8.0 8.0 0.00 0.00 0.00 50 1017.9
20260505175755 82 192 10.0 11.0 0.00 0.00 0.00 49 1017.9
20260505175253 81 157 6.0 7.0 0.00 0.00 0.00 50 1017.9
20260505174751 81 248 3.0 5.0 0.00 0.00 0.00 50 1017.9
20260505174249 81 227 13.0 13.0 0.00 0.00 0.00 50 1017.9
20260505173747 81 238 7.0 11.0 0.00 0.00 0.00 50 1017.9
20260505173245 81 222 7.0 16.0 0.00 0.00 0.00 50 1017.9
20260505172742 80 146 9.0 11.0 0.00 0.00 0.00 49 1017.9
20260505172240 80 173 7.0 7.0 0.00 0.00 0.00 52 1017.9
20260505171738 81 189 3.0 3.0 0.00 0.00 0.00 53 1017.9
20260505171236 80 170 4.0 4.0 0.00 0.00 0.00 51 1017.9
20260505170733 79 170 8.0 10.0 0.00 0.00 0.00 52 1018.2
20260505170231 79 157 7.0 13.0 0.00 0.00 0.00 52 1018.2
20260505165729 79 183 8.0 13.0 0.00 0.00 0.00 53 1018.2
20260505165227 79 175 6.0 12.0 0.00 0.00 0.00 53 1018.2
20260505164724 79 176 6.0 14.0 0.00 0.00 0.00 54 1018.2
20260505164222 79 184 1.0 11.0 0.00 0.00 0.00 53 1018.2
20260505163720 78 206 7.0 10.0 0.00 0.00 0.00 56 1018.2
20260505163218 78 228 9.0 13.0 0.00 0.00 0.00 56 1018.2
20260505162715 78 212 9.0 11.0 0.00 0.00 0.00 56 1018.6
20260505162213 78 158 9.0 12.0 0.00 0.00 0.00 58 1018.2
20260505161711 77 156 4.0 12.0 0.00 0.00 0.00 55 1018.6
20260505161208 78 232 10.0 11.0 0.00 0.00 0.00 55 1018.6
20260505160706 78 211 8.0 11.0 0.00 0.00 0.00 55 1018.6
20260505160204 78 271 9.0 11.0 0.00 0.00 0.00 56 1018.9
20260505153150 76 153 3.0 8.0 0.00 0.00 0.00 59 1018.9
20260505152648 76 146 6.0 10.0 0.00 0.00 0.00 61 1018.9
20260505152145 76 175 7.0 11.0 0.00 0.00 0.00 58 1018.9
20260505151643 76 201 5.0 10.0 0.00 0.00 0.00 60 1019.3
20260505151141 75 181 10.0 10.0 0.00 0.00 0.00 62 1019.3
20260505150638 75 181 7.0 8.0 0.00 0.00 0.00 62 1019.3
20260505150136 76 166 4.0 10.0 0.00 0.00 0.00 64 1018.9
20260505140611 71 166 8.0 11.0 0.00 0.00 0.00 71 1019.3
20260505140109 71 205 7.0 9.0 0.00 0.00 0.00 69 1019.3
20260505125038 67 230 6.0 6.0 0.00 0.00 0.00 74 1018.9
20260505124535 66 205 4.0 7.0 0.00 0.00 0.00 76 1018.9
20260505124033 66 137 4.0 7.0 0.00 0.00 0.00 75 1018.9
20260505123530 65 218 7.0 7.0 0.00 0.00 0.00 75 1018.9
20260505123028 65 233 8.0 8.0 0.00 0.00 0.00 76 1018.9
20260505122526 65 252 3.0 6.0 0.00 0.00 0.00 76 1018.9
20260505122024 64 242 5.0 8.0 0.00 0.00 0.00 77 1018.9
20260505121522 63 187 2.0 5.0 0.00 0.00 0.00 78 1018.9
20260505121020 62 169 4.0 5.0 0.00 0.00 0.00 79 1018.9
20260505120517 62 144 4.0 5.0 0.00 0.00 0.00 79 1018.9
20260505120015 61 178 2.0 6.0 0.00 0.00 0.00 82 1018.9
20260505115513 61 189 6.0 6.0 0.00 0.00 0.00 81 1018.9
20260505115011 60 213 2.0 4.0 0.00 0.00 0.00 83 1018.9
20260505114508 60 177 6.0 6.0 0.00 0.00 0.00 82 1018.9
20260505114005 59 188 3.0 3.0 0.00 0.00 0.00 83 1018.9
20260505113502 59 179 3.0 5.0 0.00 0.00 0.00 84 1018.6
20260505112957 59 207 4.0 4.0 0.00 0.00 0.00 84 1018.6
20260505112455 58 214 5.0 6.0 0.00 0.00 0.00 84 1018.6
20260505111953 58 204 0.0 2.0 0.00 0.00 0.00 85 1018.6
20260505111450 58 201 0.0 5.0 0.00 0.00 0.00 86 1018.6
20260505110948 57 202 1.0 3.0 0.00 0.00 0.00 87 1018.6
20260505110446 56 164 2.0 3.0 0.00 0.00 0.00 88 1018.6
20260505101926 54 185 0.0 2.0 0.00 0.00 0.00 91 1017.9
20260505101424 54 181 2.0 2.0 0.00 0.00 0.00 90 1017.9
20260505100921 54 164 0.0 2.0 0.00 0.00 0.00 90 1017.9
20260505100418 54 168 3.0 3.0 0.00 0.00 0.00 89 1017.9
20260505095915 55 202 0.0 2.0 0.00 0.00 0.00 89 1017.9
20260505095412 55 184 1.0 2.0 0.00 0.00 0.00 88 1017.6
20260505094910 55 202 3.0 3.0 0.00 0.00 0.00 88 1017.6
20260505094408 55 178 3.0 3.0 0.00 0.00 0.00 87 1017.6
20260505093905 55 214 2.0 2.0 0.00 0.00 0.00 87 1017.6
20260505093403 56 175 1.0 4.0 0.00 0.00 0.00 87 1017.6
20260505092901 56 183 0.0 3.0 0.00 0.00 0.00 86 1017.6
20260505092358 56 179 3.0 3.0 0.00 0.00 0.00 86 1017.6
20260505091856 56 179 4.0 4.0 0.00 0.00 0.00 86 1017.6
20260505091354 56 168 2.0 6.0 0.00 0.00 0.00 85 1017.6
20260505090851 56 204 3.0 4.0 0.00 0.00 0.00 85 1017.6
20260505090349 57 177 3.0 6.0 0.00 0.00 0.00 85 1017.6
20260505085847 57 213 3.0 5.0 0.00 0.00 0.00 84 1017.2
20260505085345 57 205 6.0 6.0 0.00 0.00 0.00 84 1017.2
20260505084842 57 222 4.0 6.0 0.00 0.00 0.00 84 1017.2
20260505084340 57 175 4.0 4.0 0.00 0.00 0.00 84 1017.2
20260505083838 57 192 4.0 4.0 0.00 0.00 0.00 84 1017.2
20260505083336 57 169 3.0 4.0 0.00 0.00 0.00 83 1017.2
20260505082834 57 205 3.0 7.0 0.00 0.00 0.00 83 1017.2
20260505082332 57 209 4.0 4.0 0.00 0.00 0.00 83 1017.2
20260505081829 57 168 3.0 5.0 0.00 0.00 0.00 83 1017.2
20260505081327 57 178 4.0 7.0 0.00 0.00 0.00 83 1017.2
20260505080825 58 221 3.0 4.0 0.00 0.00 0.00 82 1017.2
20260505080322 58 187 2.0 5.0 0.00 0.00 0.00 82 1017.2
20260505075820 58 157 6.0 6.0 0.00 0.00 0.00 82 1017.2
20260505075318 58 174 2.0 6.0 0.00 0.00 0.00 82 1017.2
20260505074815 58 188 4.0 5.0 0.00 0.00 0.00 82 1017.2
20260505074313 58 179 4.0 4.0 0.00 0.00 0.00 82 1017.2
20260505073811 58 177 4.0 4.0 0.00 0.00 0.00 82 1017.2
20260505073308 58 180 3.0 4.0 0.00 0.00 0.00 82 1017.2
20260505072806 58 201 7.0 7.0 0.00 0.00 0.00 82 1017.2
20260505072305 58 171 4.0 4.0 0.00 0.00 0.00 82 1017.2
20260505071801 58 193 2.0 3.0 0.00 0.00 0.00 82 1016.9
20260505071259 58 183 2.0 2.0 0.00 0.00 0.00 82 1016.9
20260505070757 58 165 3.0 4.0 0.00 0.00 0.00 81 1016.9
20260505070255 58 171 1.0 2.0 0.00 0.00 0.00 81 1016.9
20260505065753 58 206 2.0 3.0 0.00 0.00 0.00 81 1017.2
20260505065250 58 168 2.0 3.0 0.00 0.00 0.00 81 1017.2
20260505064748 59 162 5.0 5.0 0.00 0.00 0.00 80 1016.9
20260505064246 59 152 4.0 4.0 0.00 0.00 0.00 80 1016.9
20260505063744 59 151 3.0 3.0 0.00 0.00 0.00 80 1017.2
20260505063242 59 196 2.0 2.0 0.00 0.00 0.00 80 1016.9
20260505062739 59 162 3.0 3.0 0.00 0.00 0.00 80 1017.2
20260505062237 59 206 3.0 3.0 0.00 0.00 0.00 79 1016.9
20260505061734 59 165 2.0 2.0 0.00 0.00 0.00 79 1016.9
20260505061232 59 159 6.0 6.0 0.00 0.00 0.00 79 1017.2
20260505060730 59 168 4.0 6.0 0.00 0.00 0.00 79 1017.2
20260505060227 59 169 6.0 6.0 0.00 0.00 0.00 78 1017.2
20260505055725 59 187 4.0 6.0 0.00 0.00 0.00 78 1017.2
20260505055223 60 194 1.0 5.0 0.00 0.00 0.00 78 1017.2
20260505054720 60 153 2.0 7.0 0.00 0.00 0.00 77 1017.2
20260505054218 60 156 3.0 7.0 0.00 0.00 0.00 77 1017.2
20260505053716 60 186 2.0 6.0 0.00 0.00 0.00 77 1017.2
20260505053214 60 206 7.0 7.0 0.00 0.00 0.00 77 1017.2
20260505052711 60 195 2.0 5.0 0.00 0.00 0.00 76 1017.2
20260505052209 60 196 3.0 8.0 0.00 0.00 0.00 76 1017.2
20260505051707 61 187 5.0 8.0 0.00 0.00 0.00 75 1017.2
20260505051204 61 200 3.0 8.0 0.00 0.00 0.00 75 1017.6
20260505050701 61 171 8.0 8.0 0.00 0.00 0.00 74 1017.6
20260505050159 61 180 6.0 7.0 0.00 0.00 0.00 74 1017.6
20260505041638 63 174 4.0 10.0 0.00 0.00 0.00 72 1017.6
20260505041136 63 177 9.0 10.0 0.00 0.00 0.00 71 1017.6
20260505040634 63 198 5.0 10.0 0.00 0.00 0.00 71 1017.6
20260505040131 63 168 3.0 8.0 0.00 0.00 0.00 71 1017.6
20260505035629 63 176 8.0 9.0 0.00 0.00 0.00 70 1017.6
20260505035127 63 166 7.0 8.0 0.00 0.00 0.00 70 1017.6
20260505034625 63 206 6.0 9.0 0.00 0.00 0.00 70 1017.6
20260505034122 64 215 8.0 12.0 0.00 0.00 0.00 70 1017.6
20260505033620 64 192 6.0 11.0 0.00 0.00 0.00 70 1017.2
20260505033117 64 182 8.0 9.0 0.00 0.00 0.00 70 1017.2
20260505032615 64 189 4.0 11.0 0.00 0.00 0.00 69 1017.2
20260505032112 64 201 6.0 10.0 0.00 0.00 0.00 69 1017.2
20260505031610 64 184 8.0 12.0 0.00 0.00 0.00 69 1017.2
20260505031107 64 160 10.0 10.0 0.00 0.00 0.00 69 1017.2
20260505030605 64 170 7.0 9.0 0.00 0.00 0.00 68 1017.2
20260505025559 64 202 7.0 9.0 0.00 0.00 0.00 68 1017.2
20260505025056 65 203 9.0 10.0 0.00 0.00 0.00 67 1017.2
20260505024553 65 201 6.0 10.0 0.00 0.00 0.00 67 1017.2
20260505024051 65 164 6.0 11.0 0.00 0.00 0.00 67 1017.2
20260505023549 65 171 9.0 13.0 0.00 0.00 0.00 67 1017.2
20260505023046 65 153 9.0 10.0 0.00 0.00 0.00 66 1017.2
20260505022544 65 131 6.0 10.0 0.00 0.00 0.00 66 1017.2
20260505022042 65 195 10.0 14.0 0.00 0.00 0.00 66 1017.2
20260505021540 66 170 6.0 10.0 0.00 0.00 0.00 66 1017.2
20260505021038 66 168 7.0 9.0 0.00 0.00 0.00 66 1017.2
20260505020535 66 187 9.0 10.0 0.00 0.00 0.00 66 1017.2
20260505020033 66 179 10.0 10.0 0.00 0.00 0.00 65 1017.2
20260505015531 66 188 3.0 10.0 0.00 0.00 0.00 65 1016.9
20260505015029 66 185 9.0 11.0 0.00 0.00 0.00 65 1016.9
20260505014026 67 198 8.0 10.0 0.00 0.00 0.00 65 1016.9
20260505013523 67 184 9.0 10.0 0.00 0.00 0.00 65 1016.9
20260505013021 67 183 5.0 10.0 0.00 0.00 0.00 65 1016.9
20260505012518 67 188 7.0 14.0 0.00 0.00 0.00 65 1016.5
20260505012016 68 182 4.0 11.0 0.00 0.00 0.00 64 1016.5
20260505011514 68 161 6.0 9.0 0.00 0.00 0.00 64 1016.5
20260505011011 68 187 6.0 11.0 0.00 0.00 0.00 64 1016.5
20260505010508 68 163 11.0 14.0 0.00 0.00 0.00 64 1016.5
20260505010005 69 131 11.0 11.0 0.00 0.00 0.00 64 1016.5
20260505005458 69 171 7.0 10.0 0.00 0.00 0.00 64 1016.2
20260505004956 69 143 8.0 9.0 0.00 0.00 0.00 64 1016.2
20260505004454 70 215 8.0 11.0 0.00 0.00 0.00 62 1015.9
20260505003951 70 158 13.0 17.0 0.00 0.00 0.00 61 1015.9
20260505003449 70 165 8.0 8.0 0.00 0.00 0.00 61 1015.9
20260505002947 71 183 7.0 14.0 0.00 0.00 0.00 59 1015.9